FW2288 Weather Reports


time (UTC)temp
C
wind
direction
speed
KPH
gust
KPH
rain 1hr
cm
rain 24hr
cm
rain mn
cm
humidity
%
barometer
mb
20260508131556 11 332 3.2 9.7 0.00 0.00 0.00 56 1015.0
20260508131047 11 7 4.8 12.9 0.00 0.00 0.00 56 1014.9
20260508130549 10 337 4.8 12.9 0.00 0.00 0.00 57 1015.0
20260508130056 10 345 4.8 9.7 0.00 0.00 0.00 59 1014.9
20260508125547 9 343 1.6 8.0 0.00 0.00 0.00 63 1014.9
20260508125046 8 331 1.6 6.4 0.00 0.00 0.00 65 1014.8
20260508124555 8 0 0.0 6.4 0.00 0.00 0.00 67 1015.0
20260508124049 7 330 1.6 6.4 0.00 0.00 0.00 67 1014.9
20260508123549 7 0 0.0 4.8 0.00 0.00 0.00 68 1014.9
20260508123056 6 212 1.6 4.8 0.00 0.00 0.00 71 1014.9
20260508122548 6 0 0.0 4.8 0.00 0.00 0.00 74 1014.8
20260508122048 6 0 1.6 6.4 0.00 0.00 0.00 75 1014.7
20260508121556 5 214 3.2 6.4 0.00 0.00 0.00 75 1014.7
20260508121047 5 210 3.2 6.4 0.00 0.00 0.00 76 1014.6
20260508120550 5 205 3.2 6.4 0.00 0.00 0.00 76 1014.6
20260508120057 5 195 3.2 6.4 0.00 0.00 0.00 77 1014.5
20260508115546 5 193 3.2 6.4 0.00 0.00 0.00 77 1014.4
20260508115046 5 214 1.6 4.8 0.00 0.00 0.00 77 1014.4
20260508114552 5 250 0.0 4.8 0.00 0.00 0.00 76 1014.4
20260508114046 5 0 0.0 4.8 0.00 0.00 0.00 76 1014.3
20260508113547 5 0 0.0 0.0 0.00 0.00 0.00 76 1014.3
20260508113052 5 0 0.0 4.8 0.00 0.00 0.00 75 1014.3
20260508112548 5 0 0.0 4.8 0.00 0.00 0.00 73 1014.1
20260508112049 5 0 0.0 3.2 0.00 0.00 0.00 72 1014.2
20260508111601 5 0 0.0 3.2 0.00 0.00 0.00 72 1014.1
20260508111048 5 345 0.0 4.8 0.00 0.00 0.00 72 1013.7
20260508110546 5 0 1.6 6.4 0.00 0.00 0.00 73 1013.7
20260508110057 5 340 3.2 11.3 0.00 0.00 0.00 74 1013.7
20260508105547 5 341 4.8 11.3 0.00 0.00 0.00 73 1013.6
20260508105049 5 333 6.4 8.0 0.00 0.00 0.00 73 1013.5
20260508104553 5 324 3.2 8.0 0.00 0.00 0.00 73 1013.4
20260508104046 5 333 3.2 9.7 0.00 0.00 0.00 73 1013.4
20260508103548 5 336 4.8 11.3 0.00 0.00 0.00 73 1013.4
20260508103054 5 329 6.4 11.3 0.00 0.00 0.00 73 1013.4
20260508102548 5 341 8.0 11.3 0.00 0.00 0.00 73 1013.3
20260508102047 5 331 8.0 14.5 0.00 0.00 0.00 72 1013.3
20260508101554 5 344 6.4 14.5 0.00 0.00 0.00 71 1013.1
20260508101050 5 323 8.0 14.5 0.00 0.00 0.00 71 1013.1
20260508100550 5 319 8.0 14.5 0.00 0.00 0.00 71 1013.1
20260508100055 5 340 8.0 14.5 0.00 0.00 0.00 72 1013.0
20260508095553 5 331 8.0 14.5 0.00 0.00 0.00 72 1013.0
20260508095046 5 355 9.7 14.5 0.00 0.00 0.00 72 1013.0
20260508094606 5 338 8.0 14.5 0.00 0.00 0.00 72 1012.7
20260508094048 5 317 9.7 14.5 0.00 0.00 0.00 73 1012.7
20260508093548 5 349 9.7 14.5 0.00 0.00 0.00 73 1012.9
20260508093055 5 342 9.7 14.5 0.00 0.00 0.00 74 1012.8
20260508092547 5 345 11.3 16.1 0.00 0.00 0.00 74 1012.7
20260508092046 5 348 11.3 16.1 0.00 0.00 0.00 74 1012.6
20260508091600 5 342 11.3 16.1 0.00 0.00 0.00 75 1012.8
20260508091048 5 335 11.3 14.5 0.00 0.00 0.00 76 1012.9
20260508090547 5 336 11.3 14.5 0.00 0.00 0.00 76 1012.9
20260508090056 5 340 11.3 14.5 0.00 0.00 0.00 75 1012.8
20260508085548 5 339 9.7 12.9 0.00 0.05 0.00 75 1012.9
20260508085048 5 341 9.7 12.9 0.00 0.05 0.00 75 1013.0
20260508084557 5 338 8.0 16.1 0.00 0.05 0.00 75 1013.0
20260508084049 5 325 8.0 16.1 0.00 0.05 0.00 76 1013.0
20260508083549 5 346 9.7 16.1 0.00 0.05 0.00 76 1012.8
20260508083100 5 347 8.0 11.3 0.00 0.05 0.00 76 1012.9
20260508082550 5 344 6.4 11.3 0.00 0.05 0.00 76 1013.0
20260508082048 5 356 8.0 9.7 0.00 0.05 0.00 76 1012.9
20260508081627 5 356 6.4 11.3 0.00 0.05 0.00 75 1013.0
20260508081046 5 342 8.0 11.3 0.00 0.05 0.00 75 1012.9
20260508080552 5 344 6.4 11.3 0.00 0.05 0.00 75 1012.9
20260508080054 5 349 4.8 9.7 0.00 0.05 0.00 75 1012.9
20260508075546 5 353 6.4 9.7 0.00 0.05 0.00 75 1012.8
20260508075046 5 347 6.4 9.7 0.00 0.05 0.00 75 1012.8
20260508074556 5 347 6.4 11.3 0.00 0.05 0.00 75 1012.7
20260508074050 5 345 6.4 11.3 0.00 0.05 0.00 76 1012.7
20260508073548 6 340 6.4 9.7 0.00 0.05 0.00 76 1012.8
20260508073058 6 345 4.8 11.3 0.00 0.05 0.00 76 1012.8
20260508072548 6 347 6.4 11.3 0.00 0.05 0.00 76 1012.7
20260508072048 6 336 6.4 12.9 0.00 0.05 0.00 75 1012.7
20260508071557 6 333 8.0 12.9 0.00 0.05 0.00 75 1012.8
20260508071048 6 325 8.0 12.9 0.00 0.05 0.00 74 1012.6
20260508070547 6 335 9.7 16.1 0.00 0.05 0.00 73 1012.6
20260508070106 6 323 9.7 16.1 0.00 0.05 0.00 73 1012.6
20260508065547 6 324 9.7 17.7 0.00 0.05 0.00 74 1012.4
20260508065046 6 333 11.3 17.7 0.00 0.05 0.00 74 1012.6
20260508064558 6 340 11.3 19.3 0.00 0.05 0.00 74 1012.6
20260508064050 6 344 11.3 19.3 0.00 0.05 0.00 74 1012.7
20260508063548 6 336 11.3 19.3 0.00 0.05 0.00 75 1012.7
20260508063059 6 346 9.7 14.5 0.00 0.05 0.00 75 1012.7
20260508062546 6 339 8.0 11.3 0.00 0.05 0.00 75 1012.7
20260508062049 6 343 8.0 11.3 0.00 0.05 0.00 75 1012.7
20260508061557 6 352 6.4 11.3 0.00 0.05 0.00 74 1012.8
20260508061051 6 339 8.0 12.9 0.00 0.05 0.00 74 1012.8
20260508060549 6 349 9.7 12.9 0.00 0.05 0.00 74 1012.9
20260508060100 6 340 8.0 14.5 0.00 0.05 0.00 74 1013.1
20260508055549 7 354 8.0 17.7 0.00 0.05 0.00 74 1013.0
20260508055049 7 331 11.3 17.7 0.00 0.05 0.00 74 1013.0
20260508054559 7 338 11.3 17.7 0.00 0.05 0.00 74 1013.0
20260508054049 7 341 11.3 17.7 0.00 0.05 0.00 74 1012.9
20260508053549 7 325 11.3 17.7 0.00 0.05 0.00 75 1013.0
20260508053057 7 338 9.7 17.7 0.00 0.05 0.00 75 1013.0
20260508052548 7 338 9.7 17.7 0.00 0.05 0.00 75 1012.9
20260508052050 7 333 9.7 17.7 0.00 0.05 0.00 75 1012.7
20260508051553 7 345 11.3 19.3 0.00 0.05 0.00 75 1012.8
20260508051050 7 326 12.9 19.3 0.00 0.05 0.00 75 1012.7
20260508050551 7 324 11.3 22.5 0.00 0.05 0.00 76 1012.6
20260508050058 7 343 9.7 22.5 0.00 0.05 0.00 75 1012.6
20260508045548 7 345 12.9 20.9 0.00 0.05 0.00 74 1012.5
20260508045050 7 328 14.5 20.9 0.00 0.05 0.00 74 1012.5
20260508044603 8 342 16.1 25.7 0.00 0.05 0.00 74 1012.4
20260508044052 8 326 14.5 25.7 0.00 0.05 0.00 73 1012.3
20260508043552 8 326 14.5 25.7 0.00 0.05 0.00 72 1012.3
20260508043059 8 329 16.1 24.1 0.00 0.05 0.00 72 1012.1
20260508042548 8 332 17.7 25.7 0.00 0.05 0.00 72 1011.9
20260508042048 8 328 16.1 27.4 0.00 0.05 0.00 72 1011.9
20260508041557 8 331 19.3 30.6 0.00 0.05 0.00 72 1011.8
20260508041048 8 338 19.3 30.6 0.00 0.05 0.00 73 1011.7
20260508040547 8 334 20.9 30.6 0.00 0.05 0.00 73 1011.8
20260508040104 8 339 16.1 25.7 0.00 0.05 0.00 73 1011.9
20260508035549 8 331 16.1 27.4 0.00 0.08 0.05 73 1012.0
20260508035049 8 330 17.7 27.4 0.00 0.08 0.05 73 1011.8
20260508034558 8 333 17.7 32.2 0.00 0.08 0.05 73 1011.8
20260508034048 8 328 17.7 33.8 0.00 0.08 0.05 72 1011.7
20260508033545 8 332 19.3 37.0 0.00 0.08 0.05 72 1011.8
20260508033058 8 328 24.1 37.0 0.00 0.08 0.05 72 1011.7
20260508032549 8 335 17.7 35.4 0.00 0.08 0.05 73 1011.5
20260508032049 8 317 20.9 33.8 0.00 0.08 0.05 73 1011.3
20260508031551 8 333 16.1 30.6 0.00 0.08 0.05 73 1011.5
20260508031052 8 330 16.1 33.8 0.00 0.08 0.05 74 1011.7
20260508030548 8 333 17.7 33.8 0.00 0.08 0.05 73 1011.6
20260508025548 8 349 17.7 38.6 0.00 0.10 0.05 73 1011.4
20260508025046 9 333 20.9 38.6 0.00 0.10 0.05 73 1011.4
20260508024556 9 320 22.5 33.8 0.00 0.10 0.05 73 1011.2
20260508024047 9 342 16.1 29.0 0.00 0.10 0.05 73 1011.3
20260508023546 9 338 17.7 32.2 0.00 0.10 0.05 73 1011.1
20260508023050 9 332 17.7 32.2 0.00 0.10 0.05 73 1011.2
20260508022545 9 340 16.1 29.0 0.00 0.10 0.05 73 1011.0
20260508022048 9 349 16.1 37.0 0.00 0.10 0.05 74 1011.0
20260508021552 9 346 17.7 37.0 0.00 0.10 0.05 73 1011.0
20260508021048 9 340 20.9 37.0 0.00 0.10 0.05 73 1010.9
20260508020545 9 342 17.7 35.4 0.00 0.10 0.05 73 1010.9
20260508020053 9 342 17.7 32.2 0.00 0.10 0.05 73 1010.8
20260508015550 9 338 17.7 32.2 0.00 0.10 0.05 73 1010.7
20260508015048 9 357 19.3 40.2 0.00 0.10 0.05 73 1010.5
20260508014554 9 314 20.9 40.2 0.00 0.10 0.05 73 1010.6
20260508014049 9 320 20.9 37.0 0.00 0.10 0.05 73 1010.6
20260508013548 9 334 20.9 32.2 0.00 0.10 0.05 73 1010.5
20260508013052 9 335 17.7 32.2 0.00 0.10 0.05 73 1010.4
20260508012550 9 319 17.7 32.2 0.00 0.10 0.05 74 1010.3
20260508012048 9 314 16.1 29.0 0.00 0.10 0.05 74 1010.1
20260508011604 9 341 16.1 25.7 0.00 0.10 0.05 74 1010.1
20260508011049 9 333 14.5 25.7 0.00 0.10 0.05 74 1010.1
20260508010548 9 328 11.3 25.7 0.00 0.10 0.05 75 1009.9
20260508010052 9 332 14.5 25.7 0.00 0.10 0.05 74 1009.9
20260508005547 9 347 9.7 25.7 0.00 0.10 0.05 75 1009.8
20260508005050 9 352 9.7 22.5 0.00 0.10 0.05 75 1009.9
20260508004555 9 334 11.3 22.5 0.00 0.10 0.05 75 1009.7
20260508004046 9 358 8.0 17.7 0.00 0.10 0.05 75 1009.8
20260508003545 9 330 4.8 14.5 0.00 0.10 0.05 75 1010.0
20260508003050 9 332 6.4 19.3 0.00 0.10 0.05 74 1009.9
20260508002548 9 321 9.7 19.3 0.00 0.10 0.05 74 1010.0
20260508002048 9 331 11.3 19.3 0.00 0.10 0.05 74 1010.0
20260508001552 9 312 9.7 24.1 0.00 0.10 0.05 74 1010.0
20260508001048 10 331 8.0 24.1 0.00 0.10 0.05 73 1009.8
20260508000548 10 349 9.7 22.5 0.00 0.10 0.05 73 1010.0
20260508000057 10 303 11.3 22.5 0.00 0.10 0.05 72 1010.0
20260507235547 10 322 11.3 24.1 0.00 0.10 0.05 71 1009.9
20260507235048 10 321 12.9 24.1 0.00 0.10 0.05 71 1009.9
20260507234604 10 324 14.5 25.7 0.00 0.10 0.05 71 1009.9
20260507234046 10 297 9.7 25.7 0.00 0.10 0.05 70 1009.9
20260507233548 10 333 9.7 27.4 0.00 0.10 0.05 69 1010.0
20260507233055 11 325 16.1 27.4 0.00 0.10 0.05 69 1009.9
20260507232547 11 333 14.5 27.4 0.00 0.10 0.05 68 1010.0
20260507232048 11 318 14.5 29.0 0.00 0.10 0.05 67 1010.0
20260507231558 11 340 17.7 35.4 0.00 0.10 0.05 67 1009.8
20260507231047 11 336 17.7 48.3 0.00 0.10 0.05 67 1009.7
20260507230548 11 338 27.4 48.3 0.00 0.10 0.05 65 1009.6
20260507230058 11 335 22.5 40.2 0.00 0.10 0.05 65 1009.5
20260507225547 12 333 19.3 38.6 0.00 0.10 0.05 64 1009.5
20260507225046 12 338 24.1 38.6 0.00 0.10 0.05 64 1009.6
20260507224556 12 343 14.5 33.8 0.00 0.10 0.05 63 1009.5
20260507224048 12 352 11.3 29.0 0.00 0.10 0.05 64 1009.5
20260507223550 12 349 6.4 29.0 0.00 0.10 0.05 66 1009.7
20260507223100 12 345 16.1 29.0 0.00 0.10 0.05 66 1009.6
20260507222548 12 360 11.3 20.9 0.00 0.10 0.05 68 1009.6
20260507222048 12 317 11.3 25.7 0.00 0.10 0.05 69 1009.6
20260507221557 12 305 12.9 30.6 0.00 0.10 0.05 69 1009.6
20260507221050 12 7 17.7 30.6 0.00 0.10 0.05 69 1009.6
20260507220548 12 347 19.3 30.6 0.00 0.10 0.05 71 1009.4
20260507220053 12 318 17.7 32.2 0.00 0.10 0.05 71 1009.3
20260507215549 12 333 9.7 32.2 0.00 0.10 0.05 73 1009.3
20260507215048 12 328 9.7 25.7 0.00 0.10 0.05 71 1009.2
20260507214600 13 328 11.3 25.7 0.00 0.10 0.05 72 1009.3
20260507214047 13 338 12.9 24.1 0.00 0.10 0.05 71 1009.2
20260507213548 12 338 12.9 22.5 0.00 0.10 0.05 71 1009.2
20260507213051 13 236 9.7 20.9 0.00 0.10 0.05 71 1009.2
20260507212548 13 309 8.0 20.9 0.00 0.10 0.05 73 1009.0
20260507212047 12 333 11.3 25.7 0.00 0.10 0.05 74 1009.0
20260507211555 12 347 12.9 30.6 0.00 0.10 0.05 76 1009.1
20260507211048 11 320 20.9 35.4 0.00 0.10 0.05 77 1009.0
20260507210548 12 311 20.9 35.4 0.00 0.10 0.05 75 1009.0
20260507210057 12 309 17.7 35.4 0.00 0.10 0.05 75 1008.9
20260507205549 12 249 11.3 38.6 0.00 0.10 0.05 75 1008.8
20260507205054 12 330 12.9 38.6 0.00 0.10 0.05 74 1008.7
20260507204605 12 327 22.5 33.8 0.00 0.10 0.05 75 1008.6
20260507204048 13 334 14.5 30.6 0.00 0.10 0.05 74 1008.5
20260507203548 13 326 16.1 32.2 0.00 0.10 0.05 74 1008.4
20260507203107 13 324 11.3 40.2 0.00 0.10 0.05 77 1008.4
20260507202547 12 334 14.5 40.2 0.00 0.10 0.05 77 1008.3
20260507202047 12 328 16.1 35.4 0.00 0.10 0.05 77 1008.5
20260507201604 12 333 19.3 35.4 0.00 0.10 0.05 77 1008.2
20260507201048 12 342 22.5 33.8 0.00 0.10 0.05 78 1008.2
20260507200548 12 332 16.1 29.0 0.00 0.10 0.05 78 1008.2
20260507200058 12 315 12.9 25.7 0.00 0.10 0.05 79 1008.3
20260507195550 12 328 14.5 24.1 0.00 0.10 0.05 81 1008.3
20260507195048 12 356 8.0 25.7 0.00 0.10 0.05 82 1008.5
20260507194554 12 348 11.3 25.7 0.00 0.10 0.05 81 1008.6
20260507194048 12 318 17.7 25.7 0.00 0.10 0.05 80 1008.6
20260507193548 12 340 11.3 17.7 0.00 0.10 0.05 81 1008.6
20260507193059 12 345 4.8 27.4 0.00 0.10 0.05 82 1008.7
20260507192547 12 327 12.9 29.0 0.00 0.10 0.05 82 1008.7
20260507192048 12 314 17.7 29.0 0.00 0.10 0.05 81 1008.8
20260507191554 12 9 17.7 29.0 0.00 0.10 0.05 81 1008.9
20260507191047 12 335 14.5 22.5 0.00 0.10 0.05 81 1008.9
20260507190547 12 339 12.9 25.7 0.00 0.10 0.05 81 1008.8
20260507190055 12 358 16.1 25.7 0.00 0.10 0.05 81 1008.8
20260507185547 12 352 12.9 25.7 0.00 0.10 0.05 83 1009.1
20260507185051 12 347 17.7 27.4 0.00 0.10 0.05 83 1008.9
20260507184557 11 325 17.7 27.4 0.00 0.10 0.05 84 1009.0
20260507184047 11 349 14.5 27.4 0.00 0.10 0.05 85 1009.0
20260507183547 11 349 14.5 24.1 0.00 0.10 0.05 86 1009.1
20260507183100 11 340 14.5 24.1 0.00 0.10 0.05 85 1009.1
20260507182547 11 336 14.5 25.7 0.00 0.10 0.05 85 1009.1
20260507182047 11 341 16.1 25.7 0.00 0.10 0.05 86 1009.0
20260507181553 11 342 17.7 25.7 0.00 0.10 0.05 85 1008.9
20260507181047 11 327 14.5 24.1 0.00 0.10 0.05 85 1009.2
20260507180550 11 326 11.3 17.7 0.00 0.10 0.05 86 1009.2
20260507180057 11 330 9.7 17.7 0.00 0.10 0.05 86 1009.2
20260507175546 11 342 9.7 16.1 0.00 0.13 0.05 86 1009.2
20260507175049 11 2 6.4 17.7 0.00 0.13 0.05 87 1009.1
20260507174604 11 337 8.0 19.3 0.00 0.13 0.05 88 1009.0
20260507174047 11 346 8.0 19.3 0.00 0.13 0.05 87 1009.0
20260507173547 11 356 6.4 19.3 0.00 0.13 0.05 87 1008.9
20260507173100 11 359 9.7 12.9 0.00 0.13 0.05 88 1009.1
20260507172549 11 19 4.8 12.9 0.00 0.13 0.05 89 1009.2
20260507172048 11 356 6.4 14.5 0.00 0.13 0.05 89 1009.2
20260507171614 11 6 8.0 14.5 0.00 0.13 0.05 88 1009.1
20260507171049 11 332 8.0 12.9 0.00 0.13 0.05 90 1009.1
20260507170547 10 352 3.2 11.3 0.00 0.13 0.05 90 1009.2
20260507170057 10 356 6.4 12.9 0.00 0.13 0.05 90 1009.1
20260507165548 10 6 4.8 12.9 0.00 0.13 0.05 91 1009.2
20260507165047 10 345 8.0 14.5 0.00 0.13 0.05 91 1009.2
20260507164606 10 6 9.7 17.7 0.00 0.13 0.05 91 1009.5
20260507164048 10 354 11.3 17.7 0.00 0.13 0.05 91 1009.6
20260507163547 10 350 11.3 20.9 0.00 0.13 0.05 92 1009.4
20260507163055 10 343 12.9 20.9 0.00 0.13 0.05 92 1009.5
20260507162546 10 338 12.9 19.3 0.00 0.13 0.05 92 1009.5
20260507162047 10 345 11.3 19.3 0.00 0.13 0.05 92 1009.4
20260507161604 10 339 8.0 16.1 0.00 0.13 0.05 93 1009.4
20260507161047 10 359 4.8 14.5 0.00 0.13 0.05 93 1009.5
20260507160548 10 357 6.4 14.5 0.00 0.13 0.05 93 1009.5
20260507160059 10 8 8.0 12.9 0.00 0.13 0.05 93 1009.5
20260507155546 10 2 6.4 17.7 0.00 0.13 0.05 93 1009.5
20260507155047 10 11 9.7 17.7 0.00 0.13 0.05 93 1009.5
20260507154554 10 353 6.4 14.5 0.00 0.13 0.05 94 1009.5
20260507154047 10 6 8.0 14.5 0.00 0.13 0.05 93 1009.5
20260507153546 10 1 8.0 14.5 0.00 0.13 0.05 93 1009.6
20260507153050 10 15 9.7 14.5 0.00 0.13 0.05 93 1009.5
20260507152544 10 8 6.4 16.1 0.00 0.13 0.05 93 1009.5
20260507152049 11 4 11.3 16.1 0.00 0.13 0.05 93 1009.6
20260507151556 11 6 8.0 16.1 0.00 0.13 0.05 93 1009.6
20260507151049 11 356 6.4 16.1 0.00 0.13 0.05 92 1009.5
20260507150547 11 6 8.0 16.1 0.00 0.13 0.05 92 1009.7
20260507145546 11 14 4.8 11.3 0.00 0.13 0.05 93 1009.5
20260507145046 11 4 6.4 11.3 0.00 0.13 0.05 93 1009.6
20260507144552 11 10 6.4 11.3 0.00 0.13 0.05 94 1009.4
20260507144047 11 11 1.6 8.0 0.00 0.13 0.05 94 1009.4
20260507143546 11 3 3.2 8.0 0.00 0.13 0.05 93 1009.4
20260507143103 11 17 3.2 8.0 0.00 0.13 0.05 93 1009.5
20260507142550 11 13 3.2 9.7 0.00 0.13 0.05 93 1009.4
20260507142047 11 15 4.8 9.7 0.00 0.13 0.05 93 1009.2
20260507141602 11 8 1.6 8.0 0.00 0.13 0.05 93 1009.3
20260507141049 11 1 3.2 8.0 0.00 0.13 0.05 93 1009.5
20260507140548 11 3 3.2 11.3 0.00 0.13 0.05 94 1009.3
20260507140059 11 356 6.4 16.1 0.00 0.13 0.05 94 1009.3
20260507135546 11 8 4.8 16.1 0.00 0.25 0.05 94 1009.3
20260507135047 11 342 8.0 16.1 0.00 0.25 0.05 94 1009.5
20260507134558 11 13 4.8 16.1 0.00 0.25 0.05 94 1009.4
20260507134046 11 347 3.2 14.5 0.00 0.25 0.05 94 1009.5
20260507133547 11 16 3.2 9.7 0.00 0.25 0.05 94 1009.4
20260507133059 11 23 3.2 11.3 0.00 0.25 0.05 94 1009.2
20260507132545 11 11 6.4 11.3 0.00 0.25 0.05 94 1009.1
20260507132050 11 8 6.4 9.7 0.00 0.25 0.05 94 1009.0